Weather History for KN60 - April, 2013

Change the Weather History Date:

Monday, April 8, 2013

  Actual Average Record
Temperature  
Mean Temperature 25 °F -  
Max Temperature 33 °F 46 °F 75 °F (2005)
Min Temperature 17 °F 25 °F 1 °F (1997)
Degree Days  
Heating Degree Days 40    
Month to date heating degree days 279  
Moisture  
Dew Point 17 °F    
Average Humidity 84    
Maximum Humidity 100    
Minimum Humidity 67    
Precipitation  
Precipitation 0.15 in - - ()
Month to date precipitation 0.19  
Year to date precipitation 2.26  
Sea Level Pressure  
Sea Level Pressure 30.12 in    
Wind  
Wind Speed 13 mph (NNE)    
Max Wind Speed 22 mph    
Max Gust Speed 31 mph    
Averages and records for this station are not official NWS values.
T = Trace of Precipitation, MM = Missing Value Source: NWS Daily Summary

Daily Weather History Graph

Daily Weather History Graph

Search for Another Location

Airport or City:

Trip Planner

Search our weather history database for the weather conditions in past years. The results will help you decide how hot, cold, wet, or windy it might be!

Date:

Astronomy

Apr. 08, 2013 Rise Set
Actual Time 7:09 AM CDT 8:26 PM CDT
Civil Twilight 6:38 AM CDT 8:57 PM CDT
Nautical Twilight 5:59 AM CDT 9:36 PM CDT
Astronomical Twilight 5:18 AM CDT 10:17 PM CDT
Moon 6:07 AM CDT (4/8) 6:58 PM CDT (4/8)
Length of Visible Light 14h 19m
Length of Day
13h 16m
Waning Crescent, 3% of the Moon is Illuminated
Apr 8
Waning Crescent
Apr 10
New
Apr 18
First Quarter
Apr 25
Full
May 2
Last Quarter

Hourly Weather History & Observations

Time (CDT) Temp. Windchill Dew Point Humidity Pressure Visibility Wind Dir Wind Speed Gust Speed Precip Events Conditions
12:52 AM 32.0 °F 26.4 °F 32.0 °F 100% 29.79 in - East 5.8 mph - N/A   Unknown
1:52 AM 32.0 °F 28.7 °F 32.0 °F 100% 29.80 in - East 3.5 mph - N/A   Unknown
2:52 AM 33.1 °F 27.7 °F 32.0 °F 96% 29.81 in - East 5.8 mph - N/A   Unknown
3:52 AM 32.0 °F 24.8 °F 30.9 °F 96% 29.83 in - ENE 8.1 mph - N/A   Unknown
4:52 AM 30.9 °F 21.7 °F 30.0 °F 96% 29.84 in - ENE 11.5 mph 19.6 mph N/A   Unknown
5:52 AM 28.9 °F 19.8 °F 27.0 °F 92% 29.88 in - NE 10.4 mph 19.6 mph N/A   Unknown
6:52 AM 24.1 °F 11.0 °F 21.0 °F 88% 29.92 in - NE 16.1 mph 26.5 mph 0.02 in   Unknown
7:52 AM 21.9 °F 7.8 °F 19.0 °F 89% 29.96 in - NE 17.3 mph 27.6 mph N/A   Unknown
8:52 AM 21.9 °F 7.8 °F 19.0 °F 89% 30.02 in - NE 17.3 mph 23.0 mph N/A   Unknown
9:52 AM 19.9 °F 5.7 °F 17.1 °F 89% 30.03 in - NE 16.1 mph 29.9 mph N/A   Unknown
10:52 AM 19.9 °F 7.9 °F 16.0 °F 85% 30.08 in - NE 11.5 mph 25.3 mph N/A   Unknown
11:52 AM 19.9 °F 5.2 °F 16.0 °F 85% 30.13 in - NNE 17.3 mph 24.2 mph 0.03 in   Unknown
12:52 PM 19.0 °F 3.6 °F 15.1 °F 85% 30.17 in - NNE 18.4 mph 25.3 mph 0.05 in   Unknown
1:52 PM 19.0 °F 5.6 °F 14.0 °F 81% 30.21 in - NNE 13.8 mph 23.0 mph 0.03 in   Unknown
2:52 PM 19.9 °F 7.9 °F 15.1 °F 81% 30.25 in - North 11.5 mph 20.7 mph 0.01 in   Unknown
3:52 PM 19.9 °F 5.7 °F 14.0 °F 78% 30.25 in - NNE 16.1 mph 25.3 mph 0.01 in   Unknown
4:52 PM 19.9 °F 6.7 °F 12.0 °F 71% 30.27 in - NNE 13.8 mph 24.2 mph N/A   Unknown
5:52 PM 19.0 °F 5.6 °F 10.9 °F 71% 30.29 in - North 13.8 mph 23.0 mph N/A   Unknown
6:52 PM 18.0 °F 1.7 °F 9.0 °F 68% 30.32 in - North 19.6 mph 26.5 mph N/A   Unknown
7:52 PM 17.1 °F 3.6 °F 9.0 °F 71% 30.35 in - North 12.7 mph 25.3 mph N/A   Unknown
8:52 PM 15.1 °F 1.1 °F 8.1 °F 74% 30.37 in - North 12.7 mph 19.6 mph N/A   Unknown
9:52 PM 14.0 °F 2.0 °F 7.0 °F 74% 30.41 in - North 9.2 mph 18.4 mph N/A   Unknown
10:52 PM 12.9 °F -0.9 °F 7.0 °F 77% 30.43 in - North 11.5 mph - N/A   Unknown
11:52 PM 12.0 °F 1.5 °F 6.1 °F 77% 30.46 in - NNW 6.9 mph - N/A   Unknown